contact:dominique.lefevre@mio.osupytheas.fr, maurice.libes@osupytheas.fr, didier.mallarino@osupytheas.fr
Project:EMSO http://www.emso-fr.org/EMSO-France
Depth: 2436.0 m
Title:EMSO Ligure Ouest : Data MII capteur MICROCAT
DateTime_Computer,Latitude,Longitude,Temperature,Conductivity,Pressure,DateTime_Instrument
DateTime_Computer,Latitude,Longitude,degC,S m-1,dbar,DateTime_Instrument
2021-04-14T00:01:52Z,42.805,6.029,13.2991,4.60011,2469.363,2021-4-14T02:03:00Z
2021-04-14T00:04:55Z,42.805,6.029,13.2987,4.59999,2469.316,2021-4-14T02:06:04Z
2021-04-14T00:07:58Z,42.805,6.029,13.2981,4.60003,2469.354,2021-4-14T02:09:07Z
2021-04-14T00:11:01Z,42.805,6.029,13.2993,4.60006,2469.363,2021-4-14T02:12:10Z
2021-04-14T00:14:04Z,42.805,6.029,13.2990,4.60003,2469.354,2021-4-14T02:15:13Z
2021-04-14T00:17:08Z,42.805,6.029,13.2996,4.60011,2469.354,2021-4-14T02:18:16Z
2021-04-14T00:20:11Z,42.805,6.029,13.2991,4.60004,2469.316,2021-4-14T02:21:19Z
2021-04-14T00:23:14Z,42.805,6.029,13.2987,4.60008,2469.316,2021-4-14T02:24:22Z
2021-04-14T00:26:17Z,42.805,6.029,13.2995,4.60021,2469.293,2021-4-14T02:27:25Z
2021-04-14T00:29:20Z,42.805,6.029,13.2984,4.60013,2469.316,2021-4-14T02:30:29Z
2021-04-14T00:32:23Z,42.805,6.029,13.2996,4.60011,2469.316,2021-4-14T02:33:32Z
2021-04-14T00:35:26Z,42.805,6.029,13.2982,4.60001,2469.33,2021-4-14T02:36:35Z
2021-04-14T00:38:29Z,42.805,6.029,13.2993,4.60003,2469.33,2021-4-14T02:39:38Z
2021-04-14T00:41:33Z,42.805,6.029,13.2985,4.60009,2469.33,2021-4-14T02:42:41Z
2021-04-14T00:44:36Z,42.805,6.029,13.2992,4.60020,2469.293,2021-4-14T02:45:44Z
2021-04-14T00:47:39Z,42.805,6.029,13.2996,4.60024,2469.316,2021-4-14T02:48:47Z
2021-04-14T00:50:42Z,42.805,6.029,13.2991,4.60009,2469.34,2021-4-14T02:51:50Z
2021-04-14T00:53:45Z,42.805,6.029,13.2986,4.60011,2469.316,2021-4-14T02:54:54Z
2021-04-14T00:56:48Z,42.805,6.029,13.2991,4.60010,2469.293,2021-4-14T02:57:57Z
2021-04-14T00:59:51Z,42.805,6.029,13.2989,4.60014,2469.33,2021-4-14T03:01:00Z
2021-04-14T01:02:54Z,42.805,6.029,13.2989,4.60007,2469.316,2021-4-14T03:04:03Z
2021-04-14T01:05:58Z,42.805,6.029,13.2989,4.60007,2469.293,2021-4-14T03:07:06Z
2021-04-14T01:09:01Z,42.805,6.029,13.2989,4.59999,2469.316,2021-4-14T03:10:09Z
2021-04-14T01:12:04Z,42.805,6.029,13.2994,4.60013,2469.307,2021-4-14T03:13:12Z
2021-04-14T01:15:07Z,42.805,6.029,13.2994,4.60021,2469.293,2021-4-14T03:16:15Z
2021-04-14T01:18:10Z,42.805,6.029,13.2995,4.60013,2469.293,2021-4-14T03:19:19Z
2021-04-14T01:21:13Z,42.805,6.029,13.2996,4.60012,2469.33,2021-4-14T03:22:22Z
2021-04-14T01:24:16Z,42.805,6.029,13.2990,4.60011,2469.307,2021-4-14T03:25:25Z
2021-04-14T01:27:19Z,42.805,6.029,13.2996,4.60013,2469.279,2021-4-14T03:28:28Z
2021-04-14T01:30:23Z,42.805,6.029,13.2986,4.60010,2469.316,2021-4-14T03:31:31Z
2021-04-14T01:33:26Z,42.805,6.029,13.2991,4.60006,2469.33,2021-4-14T03:34:34Z
2021-04-14T01:36:29Z,42.805,6.029,13.2995,4.60016,2469.293,2021-4-14T03:37:37Z
2021-04-14T01:39:32Z,42.805,6.029,13.2991,4.60010,2469.307,2021-4-14T03:40:40Z
2021-04-14T01:42:35Z,42.805,6.029,13.2992,4.60021,2469.27,2021-4-14T03:43:44Z
2021-04-14T01:45:38Z,42.805,6.029,13.2988,4.60010,2469.27,2021-4-14T03:46:47Z
2021-04-14T01:48:41Z,42.805,6.029,13.2988,4.60011,2469.316,2021-4-14T03:49:50Z
2021-04-14T01:51:44Z,42.805,6.029,13.2987,4.60019,2469.293,2021-4-14T03:52:53Z
2021-04-14T01:54:48Z,42.805,6.029,13.2993,4.60005,2469.293,2021-4-14T03:55:56Z
2021-04-14T01:57:51Z,42.805,6.029,13.2989,4.60007,2469.293,2021-4-14T03:58:59Z
2021-04-14T02:00:54Z,42.805,6.029,13.2997,4.60003,2469.27,2021-4-14T04:02:02Z
2021-04-14T02:03:57Z,42.805,6.029,13.2993,4.59997,2469.293,2021-4-14T04:05:05Z
2021-04-14T02:07:00Z,42.805,6.029,13.2993,4.60013,2469.27,2021-4-14T04:08:09Z
2021-04-14T02:10:03Z,42.805,6.029,13.2993,4.60000,2469.27,2021-4-14T04:11:12Z
2021-04-14T02:13:06Z,42.805,6.029,13.2994,4.60009,2469.293,2021-4-14T04:14:15Z
2021-04-14T02:16:09Z,42.805,6.029,13.2987,4.60011,2469.293,2021-4-14T04:17:18Z
2021-04-14T02:19:13Z,42.805,6.029,13.2993,4.60000,2469.284,2021-4-14T04:20:21Z
2021-04-14T02:22:16Z,42.805,6.029,13.2994,4.60006,2469.27,2021-4-14T04:23:24Z
2021-04-14T02:25:19Z,42.805,6.029,13.2986,4.60009,2469.256,2021-4-14T04:26:27Z
2021-04-14T02:28:22Z,42.805,6.029,13.2993,4.60021,2469.27,2021-4-14T04:29:30Z
2021-04-14T02:31:25Z,42.805,6.029,13.2991,4.60010,2469.27,2021-4-14T04:32:34Z
2021-04-14T02:34:28Z,42.805,6.029,13.2986,4.60007,2469.27,2021-4-14T04:35:37Z
2021-04-14T02:37:31Z,42.805,6.029,13.2988,4.60009,2469.293,2021-4-14T04:38:40Z
2021-04-14T02:40:34Z,42.805,6.029,13.2989,4.60014,2469.27,2021-4-14T04:41:43Z
2021-04-14T02:43:38Z,42.805,6.029,13.2996,4.60009,2469.284,2021-4-14T04:44:46Z
2021-04-14T02:46:41Z,42.805,6.029,13.2991,4.60002,2469.307,2021-4-14T04:47:49Z
2021-04-14T02:49:44Z,42.805,6.029,13.2993,4.60004,2469.33,2021-4-14T04:50:52Z
2021-04-14T02:52:47Z,42.805,6.029,13.2987,4.59998,2469.293,2021-4-14T04:53:55Z
2021-04-14T02:55:50Z,42.805,6.029,13.2988,4.60005,2469.27,2021-4-14T04:56:58Z
2021-04-14T02:58:53Z,42.805,6.029,13.2991,4.59996,2469.279,2021-4-14T05:00:02Z
2021-04-14T03:01:56Z,42.805,6.029,13.2987,4.60006,2469.284,2021-4-14T05:03:05Z
2021-04-14T03:04:59Z,42.805,6.029,13.2991,4.60001,2469.27,2021-4-14T05:06:08Z
2021-04-14T03:08:02Z,42.805,6.029,13.2989,4.60010,2469.297,2021-4-14T05:09:11Z
2021-04-14T03:11:06Z,42.805,6.029,13.2986,4.60003,2469.27,2021-4-14T05:12:14Z
2021-04-14T03:14:09Z,42.805,6.029,13.2986,4.60003,2469.27,2021-4-14T05:15:17Z
2021-04-14T03:17:12Z,42.805,6.029,13.2991,4.60003,2469.293,2021-4-14T05:18:20Z
2021-04-14T03:20:15Z,42.805,6.029,13.2995,4.60021,2469.307,2021-4-14T05:21:23Z
2021-04-14T03:23:18Z,42.805,6.029,13.2990,4.60005,2469.27,2021-4-14T05:24:27Z
2021-04-14T03:26:21Z,42.805,6.029,13.2984,4.60011,2469.284,2021-4-14T05:27:30Z
2021-04-14T03:29:24Z,42.805,6.029,13.2990,4.60003,2469.27,2021-4-14T05:30:33Z
2021-04-14T03:32:27Z,42.805,6.029,13.2991,4.60006,2469.27,2021-4-14T05:33:36Z
2021-04-14T03:35:31Z,42.805,6.029,13.2993,4.60024,2469.293,2021-4-14T05:36:39Z
2021-04-14T03:38:34Z,42.805,6.029,13.2986,4.60014,2469.27,2021-4-14T05:39:42Z
2021-04-14T03:41:37Z,42.805,6.029,13.2992,4.60009,2469.284,2021-4-14T05:42:45Z
2021-04-14T03:44:40Z,42.805,6.029,13.2990,4.60010,2469.33,2021-4-14T05:45:48Z
2021-04-14T03:47:43Z,42.805,6.029,13.2993,4.59996,2469.27,2021-4-14T05:48:52Z
2021-04-14T03:50:46Z,42.805,6.029,13.2985,4.60009,2469.27,2021-4-14T05:51:55Z
2021-04-14T03:53:49Z,42.805,6.029,13.2990,4.60010,2469.307,2021-4-14T05:54:58Z
2021-04-14T03:56:52Z,42.805,6.029,13.2993,4.60019,2469.293,2021-4-14T05:58:01Z
2021-04-14T03:59:56Z,42.805,6.029,13.2987,4.60003,2469.27,2021-4-14T06:01:04Z
2021-04-14T04:02:59Z,42.805,6.029,13.2995,4.60001,2469.307,2021-4-14T06:04:07Z
2021-04-14T04:06:02Z,42.805,6.029,13.2991,4.60024,2469.307,2021-4-14T06:07:10Z
2021-04-14T04:09:05Z,42.805,6.029,13.2988,4.60009,2469.293,2021-4-14T06:10:13Z
2021-04-14T04:12:08Z,42.805,6.029,13.2987,4.60007,2469.27,2021-4-14T06:13:17Z
2021-04-14T04:15:11Z,42.805,6.029,13.2990,4.60016,2469.293,2021-4-14T06:16:20Z
2021-04-14T04:18:14Z,42.805,6.029,13.2983,4.60012,2469.316,2021-4-14T06:19:23Z
2021-04-14T04:21:17Z,42.805,6.029,13.2987,4.60010,2469.284,2021-4-14T06:22:26Z
2021-04-14T04:24:21Z,42.805,6.029,13.3004,4.60008,2469.307,2021-4-14T06:25:29Z
2021-04-14T04:27:24Z,42.805,6.029,13.2990,4.60005,2469.316,2021-4-14T06:28:32Z
2021-04-14T04:30:27Z,42.805,6.029,13.2990,4.60014,2469.307,2021-4-14T06:31:35Z
2021-04-14T04:33:30Z,42.805,6.029,13.2989,4.60000,2469.34,2021-4-14T06:34:38Z
2021-04-14T04:36:33Z,42.805,6.029,13.2986,4.60000,2469.33,2021-4-14T06:37:42Z
2021-04-14T04:39:36Z,42.805,6.029,13.2989,4.60008,2469.316,2021-4-14T06:40:45Z
2021-04-14T04:42:39Z,42.805,6.029,13.2987,4.60006,2469.354,2021-4-14T06:43:48Z
2021-04-14T04:45:42Z,42.805,6.029,13.2989,4.60001,2469.307,2021-4-14T06:46:51Z
2021-04-14T04:48:46Z,42.805,6.029,13.2993,4.60009,2469.33,2021-4-14T06:49:54Z
2021-04-14T04:51:49Z,42.805,6.029,13.2990,4.60007,2469.316,2021-4-14T06:52:57Z
2021-04-14T04:54:52Z,42.805,6.029,13.2993,4.60013,2469.316,2021-4-14T06:56:00Z
2021-04-14T04:57:55Z,42.805,6.029,13.2994,4.60006,2469.307,2021-4-14T06:59:03Z
2021-04-14T05:00:58Z,42.805,6.029,13.2996,4.60007,2469.316,2021-4-14T07:02:07Z
2021-04-14T05:04:01Z,42.805,6.029,13.2991,4.60005,2469.316,2021-4-14T07:05:10Z
2021-04-14T05:07:04Z,42.805,6.029,13.2993,4.60005,2469.316,2021-4-14T07:08:13Z
2021-04-14T05:10:07Z,42.805,6.029,13.2996,4.60007,2469.363,2021-4-14T07:11:16Z
2021-04-14T05:13:11Z,42.805,6.029,13.2993,4.60016,2469.316,2021-4-14T07:14:19Z
2021-04-14T05:16:14Z,42.805,6.029,13.2987,4.60005,2469.34,2021-4-14T07:17:22Z
2021-04-14T05:19:17Z,42.805,6.029,13.2991,4.60006,2469.33,2021-4-14T07:20:25Z
2021-04-14T05:22:20Z,42.805,6.029,13.2988,4.60003,2469.316,2021-4-14T07:23:28Z
2021-04-14T05:25:23Z,42.805,6.029,13.2993,4.60009,2469.354,2021-4-14T07:26:32Z
2021-04-14T05:28:26Z,42.805,6.029,13.2990,4.60001,2469.34,2021-4-14T07:29:35Z
2021-04-14T05:31:29Z,42.805,6.029,13.2991,4.60003,2469.377,2021-4-14T07:32:38Z
2021-04-14T05:34:32Z,42.805,6.029,13.2990,4.60006,2469.386,2021-4-14T07:35:41Z
2021-04-14T05:37:36Z,42.805,6.029,13.2990,4.60010,2469.34,2021-4-14T07:38:44Z
2021-04-14T05:40:39Z,42.805,6.029,13.2993,4.60008,2469.316,2021-4-14T07:41:47Z
2021-04-14T05:43:42Z,42.805,6.029,13.2988,4.60004,2469.34,2021-4-14T07:44:50Z
2021-04-14T05:46:45Z,42.805,6.029,13.2992,4.60005,2469.377,2021-4-14T07:47:53Z
2021-04-14T05:49:48Z,42.805,6.029,13.2987,4.60017,2469.41,2021-4-14T07:50:57Z
2021-04-14T05:52:51Z,42.805,6.029,13.2989,4.60014,2469.354,2021-4-14T07:54:00Z
2021-04-14T05:55:54Z,42.805,6.029,13.2993,4.60002,2469.386,2021-4-14T07:57:03Z
2021-04-14T05:58:57Z,42.805,6.029,13.2994,4.60006,2469.4,2021-4-14T08:00:06Z
2021-04-14T06:02:01Z,42.805,6.029,13.2990,4.60003,2469.41,2021-4-14T08:03:09Z
2021-04-14T06:05:04Z,42.805,6.029,13.2991,4.59999,2469.424,2021-4-14T08:06:12Z
2021-04-14T06:08:07Z,42.805,6.029,13.2990,4.60003,2469.41,2021-4-14T08:09:15Z
2021-04-14T06:11:10Z,42.805,6.029,13.2987,4.60003,2469.424,2021-4-14T08:12:18Z
2021-04-14T06:14:13Z,42.805,6.029,13.2993,4.60007,2469.41,2021-4-14T08:15:21Z
2021-04-14T06:17:16Z,42.805,6.029,13.2987,4.60001,2469.447,2021-4-14T08:18:25Z
2021-04-14T06:20:19Z,42.805,6.029,13.2992,4.60006,2469.424,2021-4-14T08:21:28Z
2021-04-14T06:23:22Z,42.805,6.029,13.2993,4.60004,2469.424,2021-4-14T08:24:31Z
2021-04-14T06:26:25Z,42.805,6.029,13.2988,4.60008,2469.424,2021-4-14T08:27:34Z
2021-04-14T06:29:29Z,42.805,6.029,13.2990,4.60004,2469.433,2021-4-14T08:30:37Z
2021-04-14T06:32:32Z,42.805,6.029,13.2989,4.60002,2469.424,2021-4-14T08:33:40Z
2021-04-14T06:35:35Z,42.805,6.029,13.2993,4.60006,2469.41,2021-4-14T08:36:43Z
2021-04-14T06:38:38Z,42.805,6.029,13.2989,4.60002,2469.41,2021-4-14T08:39:46Z
2021-04-14T06:41:41Z,42.805,6.029,13.2990,4.60001,2469.433,2021-4-14T08:42:50Z
2021-04-14T06:44:44Z,42.805,6.029,13.2990,4.60002,2469.424,2021-4-14T08:45:53Z
2021-04-14T06:47:47Z,42.805,6.029,13.2988,4.59999,2469.456,2021-4-14T08:48:56Z
2021-04-14T06:50:51Z,42.805,6.029,13.2989,4.60003,2469.447,2021-4-14T08:51:59Z
2021-04-14T06:53:54Z,42.805,6.029,13.2986,4.59998,2469.456,2021-4-14T08:55:02Z
2021-04-14T06:56:57Z,42.805,6.029,13.2983,4.60006,2469.447,2021-4-14T08:58:05Z
2021-04-14T07:00:00Z,42.805,6.029,13.2992,4.60004,2469.494,2021-4-14T09:01:08Z
2021-04-14T07:03:03Z,42.805,6.029,13.2989,4.60002,2469.456,2021-4-14T09:04:11Z
2021-04-14T07:06:06Z,42.805,6.029,13.2986,4.60007,2469.456,2021-4-14T09:07:15Z
2021-04-14T07:09:09Z,42.805,6.029,13.2994,4.60019,2469.494,2021-4-14T09:10:18Z
2021-04-14T07:12:12Z,42.805,6.029,13.2992,4.60014,2469.456,2021-4-14T09:13:21Z
2021-04-14T07:15:15Z,42.805,6.029,13.2992,4.60016,2469.433,2021-4-14T09:16:24Z
2021-04-14T07:18:19Z,42.805,6.029,13.2996,4.60011,2469.48,2021-4-14T09:19:27Z
2021-04-14T07:21:22Z,42.805,6.029,13.2990,4.60003,2469.47,2021-4-14T09:22:30Z
2021-04-14T07:24:25Z,42.805,6.029,13.2990,4.60013,2469.494,2021-4-14T09:25:33Z
2021-04-14T07:27:28Z,42.805,6.029,13.2990,4.60011,2469.48,2021-4-14T09:28:36Z
2021-04-14T07:30:31Z,42.805,6.029,13.2986,4.60010,2469.47,2021-4-14T09:31:40Z
2021-04-14T07:33:34Z,42.805,6.029,13.2986,4.60004,2469.48,2021-4-14T09:34:43Z
2021-04-14T07:36:37Z,42.805,6.029,13.2985,4.60003,2469.494,2021-4-14T09:37:46Z
2021-04-14T07:39:40Z,42.805,6.029,13.2991,4.60006,2469.48,2021-4-14T09:40:49Z
2021-04-14T07:42:44Z,42.805,6.029,13.2982,4.59999,2469.48,2021-4-14T09:43:52Z
2021-04-14T07:45:47Z,42.805,6.029,13.2989,4.60003,2469.503,2021-4-14T09:46:55Z
2021-04-14T07:48:50Z,42.805,6.029,13.2991,4.60006,2469.466,2021-4-14T09:49:58Z
2021-04-14T07:51:53Z,42.805,6.029,13.2986,4.60001,2469.494,2021-4-14T09:53:01Z
2021-04-14T07:54:56Z,42.805,6.029,13.2983,4.60003,2469.526,2021-4-14T09:56:05Z
2021-04-14T07:57:59Z,42.805,6.029,13.2991,4.60004,2469.54,2021-4-14T09:59:08Z
2021-04-14T08:01:02Z,42.805,6.029,13.2992,4.60004,2469.526,2021-4-14T10:02:11Z
2021-04-14T08:04:05Z,42.805,6.029,13.2988,4.60007,2469.503,2021-4-14T10:05:14Z
2021-04-14T08:07:09Z,42.805,6.029,13.2988,4.60003,2469.526,2021-4-14T10:08:17Z
2021-04-14T08:10:12Z,42.805,6.029,13.2990,4.60011,2469.503,2021-4-14T10:11:20Z
2021-04-14T08:13:15Z,42.805,6.029,13.2993,4.60013,2469.54,2021-4-14T10:14:23Z
2021-04-14T08:16:18Z,42.805,6.029,13.2997,4.60015,2469.526,2021-4-14T10:17:26Z
2021-04-14T08:19:21Z,42.805,6.029,13.2993,4.60001,2469.503,2021-4-14T10:20:30Z
2021-04-14T08:22:24Z,42.805,6.029,13.2986,4.60004,2469.54,2021-4-14T10:23:33Z
2021-04-14T08:25:27Z,42.805,6.029,13.2987,4.60009,2469.494,2021-4-14T10:26:36Z
2021-04-14T08:28:30Z,42.805,6.029,13.2986,4.60000,2469.48,2021-4-14T10:29:39Z
2021-04-14T08:31:34Z,42.805,6.029,13.2994,4.60013,2469.503,2021-4-14T10:32:42Z
2021-04-14T08:34:37Z,42.805,6.029,13.2987,4.60014,2469.54,2021-4-14T10:35:45Z
2021-04-14T08:37:40Z,42.805,6.029,13.2990,4.60011,2469.54,2021-4-14T10:38:48Z
2021-04-14T08:40:43Z,42.805,6.029,13.2991,4.60003,2469.503,2021-4-14T10:41:51Z
2021-04-14T08:43:46Z,42.805,6.029,13.2994,4.60004,2469.526,2021-4-14T10:44:55Z
2021-04-14T08:46:49Z,42.805,6.029,13.2998,4.60024,2469.55,2021-4-14T10:47:58Z
2021-04-14T08:49:52Z,42.805,6.029,13.2991,4.60009,2469.517,2021-4-14T10:51:01Z
2021-04-14T08:52:55Z,42.805,6.029,13.2994,4.60021,2469.517,2021-4-14T10:54:04Z
2021-04-14T08:55:59Z,42.805,6.029,13.2992,4.60021,2469.55,2021-4-14T10:57:07Z
2021-04-14T08:59:02Z,42.805,6.029,13.2990,4.60010,2469.526,2021-4-14T11:00:10Z
2021-04-14T09:02:05Z,42.805,6.029,13.2993,4.60009,2469.494,2021-4-14T11:03:13Z
2021-04-14T09:05:08Z,42.805,6.029,13.2990,4.60015,2469.526,2021-4-14T11:06:16Z
2021-04-14T09:08:11Z,42.805,6.029,13.2991,4.60019,2469.526,2021-4-14T11:09:20Z
2021-04-14T09:11:14Z,42.805,6.029,13.2989,4.60008,2469.517,2021-4-14T11:12:23Z
2021-04-14T09:14:17Z,42.805,6.029,13.2991,4.60019,2469.526,2021-4-14T11:15:26Z
2021-04-14T09:17:20Z,42.805,6.029,13.2989,4.60007,2469.503,2021-4-14T11:18:29Z
2021-04-14T09:20:24Z,42.805,6.029,13.2995,4.60022,2469.526,2021-4-14T11:21:32Z
2021-04-14T09:23:27Z,42.805,6.029,13.2985,4.60009,2469.54,2021-4-14T11:24:35Z
2021-04-14T09:26:30Z,42.805,6.029,13.2990,4.60014,2469.517,2021-4-14T11:27:38Z
2021-04-14T09:29:33Z,42.805,6.029,13.2994,4.60005,2469.526,2021-4-14T11:30:42Z
2021-04-14T09:32:36Z,42.805,6.029,13.2992,4.60011,2469.526,2021-4-14T11:33:45Z
2021-04-14T09:35:39Z,42.805,6.029,13.2991,4.60016,2469.503,2021-4-14T11:36:48Z
2021-04-14T09:38:42Z,42.805,6.029,13.2991,4.60008,2469.526,2021-4-14T11:39:51Z
2021-04-14T09:41:46Z,42.805,6.029,13.2992,4.60007,2469.503,2021-4-14T11:42:54Z
2021-04-14T09:44:49Z,42.805,6.029,13.2990,4.60011,2469.494,2021-4-14T11:45:57Z
2021-04-14T09:47:52Z,42.805,6.029,13.2987,4.60007,2469.47,2021-4-14T11:49:00Z
2021-04-14T09:50:55Z,42.805,6.029,13.2990,4.60011,2469.503,2021-4-14T11:52:03Z
2021-04-14T09:53:58Z,42.805,6.029,13.2995,4.60007,2469.503,2021-4-14T11:55:07Z
2021-04-14T09:57:01Z,42.805,6.029,13.2992,4.60011,2469.494,2021-4-14T11:58:10Z
2021-04-14T10:00:04Z,42.805,6.029,13.2996,4.60007,2469.503,2021-4-14T12:01:13Z
2021-04-14T10:03:07Z,42.805,6.029,13.2997,4.60016,2469.494,2021-4-14T12:04:16Z
2021-04-14T10:06:11Z,42.805,6.029,13.2989,4.60026,2469.517,2021-4-14T12:07:19Z
2021-04-14T10:09:14Z,42.805,6.029,13.2997,4.60016,2469.456,2021-4-14T12:10:22Z
2021-04-14T10:12:17Z,42.805,6.029,13.3003,4.60015,2469.517,2021-4-14T12:13:25Z
2021-04-14T10:15:20Z,42.805,6.029,13.3004,4.60022,2469.503,2021-4-14T12:16:28Z
2021-04-14T10:18:23Z,42.805,6.029,13.2999,4.60024,2469.456,2021-4-14T12:19:32Z
2021-04-14T10:21:26Z,42.805,6.029,13.2996,4.60022,2469.503,2021-4-14T12:22:35Z
2021-04-14T10:24:29Z,42.805,6.029,13.2995,4.60024,2469.48,2021-4-14T12:25:38Z
2021-04-14T10:27:32Z,42.805,6.029,13.2998,4.60028,2469.494,2021-4-14T12:28:41Z
2021-04-14T10:30:36Z,42.805,6.029,13.3000,4.60012,2469.494,2021-4-14T12:31:44Z
2021-04-14T10:33:39Z,42.805,6.029,13.2993,4.60029,2469.494,2021-4-14T12:34:47Z
2021-04-14T10:36:42Z,42.805,6.029,13.2996,4.60016,2469.503,2021-4-14T12:37:50Z
2021-04-14T10:39:45Z,42.805,6.029,13.2995,4.60012,2469.48,2021-4-14T12:40:53Z
2021-04-14T10:42:48Z,42.805,6.029,13.2990,4.60008,2469.47,2021-4-14T12:43:57Z
2021-04-14T10:45:51Z,42.805,6.029,13.2991,4.60004,2469.456,2021-4-14T12:47:00Z
2021-04-14T10:48:54Z,42.805,6.029,13.2991,4.60011,2469.47,2021-4-14T12:50:03Z
2021-04-14T10:51:57Z,42.805,6.029,13.2991,4.60008,2469.456,2021-4-14T12:53:06Z
2021-04-14T10:55:01Z,42.805,6.029,13.3002,4.60008,2469.433,2021-4-14T12:56:09Z
2021-04-14T10:58:04Z,42.805,6.029,13.2996,4.60029,2469.456,2021-4-14T12:59:12Z
2021-04-14T11:01:07Z,42.805,6.029,13.3000,4.60013,2469.456,2021-4-14T13:02:15Z
2021-04-14T11:04:10Z,42.805,6.029,13.3000,4.60011,2469.433,2021-4-14T13:05:18Z
2021-04-14T11:07:13Z,42.805,6.029,13.3004,4.60014,2469.456,2021-4-14T13:08:22Z
2021-04-14T11:10:16Z,42.805,6.029,13.2991,4.60022,2469.47,2021-4-14T13:11:25Z
2021-04-14T11:13:19Z,42.805,6.029,13.2997,4.60026,2469.433,2021-4-14T13:14:28Z
2021-04-14T11:16:22Z,42.805,6.029,13.2992,4.60015,2469.424,2021-4-14T13:17:31Z
2021-04-14T11:19:26Z,42.805,6.029,13.2988,4.60020,2469.484,2021-4-14T13:20:34Z
2021-04-14T11:22:29Z,42.805,6.029,13.2990,4.60021,2469.447,2021-4-14T13:23:37Z
2021-04-14T11:25:32Z,42.805,6.029,13.2997,4.60019,2469.433,2021-4-14T13:26:40Z
2021-04-14T11:28:35Z,42.805,6.029,13.2987,4.60017,2469.447,2021-4-14T13:29:43Z
2021-04-14T11:31:38Z,42.805,6.029,13.3000,4.60028,2469.447,2021-4-14T13:32:47Z
2021-04-14T11:34:41Z,42.805,6.029,13.2993,4.60031,2469.41,2021-4-14T13:35:50Z
2021-04-14T11:37:44Z,42.805,6.029,13.2991,4.60005,2469.433,2021-4-14T13:38:53Z
2021-04-14T11:40:47Z,42.805,6.029,13.2998,4.60003,2469.424,2021-4-14T13:41:56Z
2021-04-14T11:43:51Z,42.805,6.029,13.2996,4.60021,2469.424,2021-4-14T13:44:59Z
2021-04-14T11:46:54Z,42.805,6.029,13.3003,4.59999,2469.41,2021-4-14T13:48:02Z
2021-04-14T11:49:57Z,42.805,6.029,13.2993,4.60017,2469.424,2021-4-14T13:51:05Z
2021-04-14T11:53:00Z,42.805,6.029,13.2998,4.60003,2469.447,2021-4-14T13:54:08Z
2021-04-14T11:56:03Z,42.805,6.029,13.2997,4.59996,2469.41,2021-4-14T13:57:12Z
2021-04-14T11:59:06Z,42.805,6.029,13.3000,4.60011,2469.386,2021-4-14T14:00:15Z
2021-04-14T12:02:09Z,42.805,6.029,13.3000,4.60009,2469.41,2021-4-14T14:03:18Z
2021-04-14T12:05:12Z,42.805,6.029,13.2997,4.60020,2469.424,2021-4-14T14:06:21Z
2021-04-14T12:08:16Z,42.805,6.029,13.2997,4.60016,2469.433,2021-4-14T14:09:24Z
2021-04-14T12:11:19Z,42.805,6.029,13.2995,4.60026,2469.363,2021-4-14T14:12:27Z
2021-04-14T12:14:22Z,42.805,6.029,13.3004,4.60026,2469.386,2021-4-14T14:15:30Z
2021-04-14T12:17:25Z,42.805,6.029,13.3003,4.60015,2469.41,2021-4-14T14:18:34Z
2021-04-14T12:20:28Z,42.805,6.029,13.2994,4.60003,2469.363,2021-4-14T14:21:37Z
2021-04-14T12:23:31Z,42.805,6.029,13.2999,4.60028,2469.386,2021-4-14T14:24:40Z
2021-04-14T12:26:34Z,42.805,6.029,13.2998,4.60017,2469.456,2021-4-14T14:27:43Z
2021-04-14T12:29:38Z,42.805,6.029,13.2997,4.60010,2469.386,2021-4-14T14:30:46Z
2021-04-14T12:32:41Z,42.805,6.029,13.3000,4.60011,2469.4,2021-4-14T14:33:49Z
2021-04-14T12:35:44Z,42.805,6.029,13.3000,4.60005,2469.4,2021-4-14T14:36:52Z
2021-04-14T12:38:47Z,42.805,6.029,13.3000,4.60013,2469.34,2021-4-14T14:39:55Z
2021-04-14T12:41:50Z,42.805,6.029,13.2997,4.60018,2469.386,2021-4-14T14:42:59Z
2021-04-14T12:44:53Z,42.805,6.029,13.3003,4.60006,2469.386,2021-4-14T14:46:02Z
2021-04-14T12:47:56Z,42.805,6.029,13.3001,4.60011,2469.363,2021-4-14T14:49:05Z
2021-04-14T12:50:59Z,42.805,6.029,13.2991,4.60003,2469.386,2021-4-14T14:52:08Z
2021-04-14T12:54:03Z,42.805,6.029,13.3004,4.60008,2469.386,2021-4-14T14:55:11Z
2021-04-14T12:57:06Z,42.805,6.029,13.2999,4.59999,2469.4,2021-4-14T14:58:14Z
2021-04-14T13:00:09Z,42.805,6.029,13.2998,4.60026,2469.34,2021-4-14T15:01:17Z
2021-04-14T13:03:12Z,42.805,6.029,13.2998,4.60000,2469.34,2021-4-14T15:04:20Z
2021-04-14T13:06:15Z,42.805,6.029,13.3002,4.60009,2469.4,2021-4-14T15:07:24Z
2021-04-14T13:09:18Z,42.805,6.029,13.2995,4.60003,2469.363,2021-4-14T15:10:27Z
2021-04-14T13:12:21Z,42.805,6.029,13.2991,4.60017,2469.377,2021-4-14T15:13:30Z
2021-04-14T13:15:24Z,42.805,6.029,13.2996,4.60019,2469.4,2021-4-14T15:16:33Z
2021-04-14T13:18:28Z,42.805,6.029,13.2997,4.60013,2469.363,2021-4-14T15:19:36Z
2021-04-14T13:21:31Z,42.805,6.029,13.3000,4.60017,2469.34,2021-4-14T15:22:39Z
2021-04-14T13:24:34Z,42.805,6.029,13.3003,4.60023,2469.34,2021-4-14T15:25:42Z
2021-04-14T13:27:37Z,42.805,6.029,13.3007,4.60026,2469.363,2021-4-14T15:28:45Z
2021-04-14T13:30:40Z,42.805,6.029,13.3009,4.60026,2469.377,2021-4-14T15:31:49Z
2021-04-14T13:33:43Z,42.805,6.029,13.2998,4.60009,2469.363,2021-4-14T15:34:52Z
2021-04-14T13:36:46Z,42.805,6.029,13.3004,4.60009,2469.363,2021-4-14T15:37:55Z
2021-04-14T13:39:49Z,42.805,6.029,13.2996,4.60008,2469.316,2021-4-14T15:40:58Z
2021-04-14T13:42:53Z,42.805,6.029,13.2998,4.60017,2469.34,2021-4-14T15:44:01Z
2021-04-14T13:45:56Z,42.805,6.029,13.2999,4.60014,2469.363,2021-4-14T15:47:04Z
2021-04-14T13:48:59Z,42.805,6.029,13.2993,4.60019,2469.354,2021-4-14T15:50:07Z
2021-04-14T13:52:02Z,42.805,6.029,13.3000,4.60021,2469.363,2021-4-14T15:53:10Z
2021-04-14T13:55:05Z,42.805,6.029,13.2993,4.60016,2469.377,2021-4-14T15:56:14Z
2021-04-14T13:58:08Z,42.805,6.029,13.2993,4.60028,2469.363,2021-4-14T15:59:17Z
2021-04-14T14:01:11Z,42.805,6.029,13.3000,4.60006,2469.4,2021-4-14T16:02:20Z
2021-04-14T14:04:14Z,42.805,6.029,13.2993,4.59996,2469.34,2021-4-14T16:05:23Z
2021-04-14T14:07:18Z,42.805,6.029,13.2998,4.60009,2469.377,2021-4-14T16:08:26Z
2021-04-14T14:10:21Z,42.805,6.029,13.2997,4.59994,2469.363,2021-4-14T16:11:29Z
2021-04-14T14:13:24Z,42.805,6.029,13.2989,4.59991,2469.354,2021-4-14T16:14:32Z
2021-04-14T14:16:27Z,42.805,6.029,13.2996,4.60002,2469.33,2021-4-14T16:17:35Z
2021-04-14T14:19:30Z,42.805,6.029,13.2998,4.60011,2469.34,2021-4-14T16:20:39Z
2021-04-14T14:22:33Z,42.805,6.029,13.2992,4.60021,2469.354,2021-4-14T16:23:42Z
2021-04-14T14:25:36Z,42.805,6.029,13.2993,4.60001,2469.363,2021-4-14T16:26:45Z
2021-04-14T14:28:39Z,42.805,6.029,13.2998,4.60019,2469.377,2021-4-14T16:29:48Z
2021-04-14T14:31:43Z,42.805,6.029,13.2994,4.60000,2469.34,2021-4-14T16:32:51Z
2021-04-14T14:34:46Z,42.805,6.029,13.2997,4.59992,2469.363,2021-4-14T16:35:54Z
2021-04-14T14:37:49Z,42.805,6.029,13.2988,4.59990,2469.363,2021-4-14T16:38:57Z
2021-04-14T14:40:52Z,42.805,6.029,13.2991,4.59994,2469.377,2021-4-14T16:42:00Z
2021-04-14T14:43:55Z,42.805,6.029,13.2983,4.59993,2469.354,2021-4-14T16:45:04Z
2021-04-14T14:46:58Z,42.805,6.029,13.2988,4.59990,2469.34,2021-4-14T16:48:07Z
2021-04-14T14:50:01Z,42.805,6.029,13.2986,4.59987,2469.34,2021-4-14T16:51:10Z
2021-04-14T14:53:04Z,42.805,6.029,13.2993,4.59997,2469.363,2021-4-14T16:54:13Z
2021-04-14T14:56:08Z,42.805,6.029,13.2992,4.59994,2469.316,2021-4-14T16:57:16Z
2021-04-14T14:59:11Z,42.805,6.029,13.2993,4.59990,2469.354,2021-4-14T17:00:19Z
2021-04-14T15:02:14Z,42.805,6.029,13.2998,4.60001,2469.377,2021-4-14T17:03:22Z
2021-04-14T15:05:17Z,42.805,6.029,13.2991,4.59998,2469.354,2021-4-14T17:06:25Z
2021-04-14T15:08:20Z,42.805,6.029,13.2991,4.60002,2469.354,2021-4-14T17:09:29Z
2021-04-14T15:11:23Z,42.805,6.029,13.2985,4.59991,2469.377,2021-4-14T17:12:32Z
2021-04-14T15:14:26Z,42.805,6.029,13.2990,4.59990,2469.386,2021-4-14T17:15:35Z